[[{"header":{"parameterUnit":"m.s-1","parameterCategory":1,"la1":30.2991,"la2":30.254,"lo1":-89.0895,"lo2":-89.0444,"dy":0.0017,"dx":0.0017,"nx":28,"ny":28,"refTime":"2025-06-21T09:00:00:Z","depth":0,"parameterNumber":2,"parameterNumberName":"U-component_of_WINDS"},"data":[0,0,0,0,0,0,0,0,0,0,0,0,0,0,0,0,0,0,0,0,0,0,0,0,0,0,0,0,0,0,0,0,0,0,0,0,0,0,0,0,0,0,0,0,0,0,0,0,0,0,0,0,0,0,0,0,0,0,-0.7721,-0.772,0,-0.7649,-0.7649,-0.7648,-0.7596,-0.7596,-0.7595,-0.7595,-0.7521,-0.7519,-0.7518,0,0,0,0,0,0,0,0,0,0,0,0,0,-0.7814,-0.7813,-0.7721,-0.772,-0.7719,-0.7649,-0.7648,-0.7648,-0.7596,-0.7596,-0.7595,-0.7595,-0.7522,-0.752,-0.7518,0,0,0,0,0,0,0,0,0,0,0,0,0,-0.7761,-0.7812,-0.7721,-0.7685,-0.7681,-0.765,-0.7648,-0.7647,-0.7596,-0.7596,-0.7595,-0.7594,-0.7522,-0.752,-0.7518,-0.7516,0,0,-0.751,-0.7509,0,0,0,0,0,0,0,0,-0.7765,-0.7758,-0.7691,-0.7688,-0.7683,-0.7631,-0.7654,-0.7603,-0.7596,-0.7629,-0.7595,-0.7594,-0.7558,-0.7553,-0.7541,-0.7512,-0.7509,-0.751,-0.7509,-0.7508,-0.7507,0,0,0,0,0,0,0,-0.7768,-0.7761,-0.7693,-0.769,-0.7685,-0.7673,-0.7665,-0.7644,-0.7598,-0.7626,-0.7622,-0.7614,-0.7556,-0.7543,-0.7539,-0.7508,-0.751,-0.7508,-0.7507,-0.7506,-0.7477,-0.7477,0,0,0,0,0,0,-0.7777,-0.7764,-0.7695,-0.769,-0.7723,-0.7672,-0.7663,-0.7648,-0.7598,-0.759,-0.7615,-0.7612,-0.7547,-0.7541,-0.7536,-0.7531,-0.7508,-0.7506,-0.7504,-0.7476,-0.7477,-0.7478,0,0,0,0,0,0,-0.778,-0.7772,-0.7698,-0.7726,-0.7716,-0.7671,-0.7655,-0.7647,-0.7635,-0.759,-0.7581,-0.761,-0.7547,-0.7539,-0.7522,-0.7528,-0.7504,-0.7502,-0.7475,-0.7476,-0.7477,-0.7522,0,0,0,0,0,0,-0.7783,-0.7773,-0.7771,-0.7727,-0.7715,-0.7684,-0.7656,-0.7646,-0.7631,-0.7626,-0.7583,-0.7575,-0.7546,-0.7525,-0.7519,-0.7524,-0.75,-0.7475,-0.7476,-0.7477,-0.752,-0.7525,-0.7529,0,0,0,0,0,-0.7786,-0.7786,-0.7771,-0.7763,-0.7712,-0.7685,-0.7678,-0.7644,-0.7631,-0.763,-0.7601,-0.7577,-0.7529,-0.7524,-0.7517,-0.7521,-0.7474,-0.7476,-0.7477,-0.7518,-0.7524,-0.7528,0,0,0,0,0,0,-0.7832,-0.778,-0.7763,-0.7748,-0.7722,-0.7676,-0.7673,-0.7651,-0.7627,-0.7624,-0.7583,-0.7573,-0.7561,-0.7539,-0.7535,-0.7518,-0.7498,-0.7498,-0.7532,-0.7537,-0.7541,-0.7547,-0.7499,0,0,0,0,0,-0.7841,-0.7823,-0.7778,-0.777,-0.7758,-0.7718,-0.7705,-0.7681,-0.7652,-0.764,-0.761,-0.7583,-0.7562,-0.7548,-0.7526,-0.7517,-0.7507,-0.7517,-0.7521,-0.7525,-0.7525,-0.752,-0.7524,-0.7482,-0.7482,-0.7482,0,0,-0.7858,-0.7827,-0.7818,-0.7779,-0.7755,-0.7739,-0.7709,-0.7692,-0.7679,-0.7637,-0.7619,-0.7597,-0.7564,-0.7551,-0.7544,-0.7532,-0.7535,-0.7527,-0.753,-0.7528,-0.7522,-0.7526,-0.753,-0.7483,-0.7483,-0.7483,0,0,-0.7881,-0.7856,-0.7846,-0.7824,-0.7789,-0.7763,-0.7761,-0.772,-0.7703,-0.7685,-0.7654,-0.7639,-0.7603,-0.7581,-0.7565,-0.7583,-0.7559,-0.7577,-0.7599,-0.7594,-0.7598,-0.76,-0.7607,-0.761,-0.7577,-0.7577,-0.7577,0,-0.7906,-0.788,-0.7845,-0.783,-0.7814,-0.7777,-0.7768,-0.7748,-0.7708,-0.7698,-0.7686,-0.7642,-0.7616,-0.7599,-0.7603,-0.7592,-0.7589,-0.7581,-0.76,-0.7602,-0.7604,-0.7611,-0.7613,-0.758,-0.7579,-0.7579,-0.7579,0,-0.7914,-0.7896,-0.7893,-0.7856,-0.784,-0.7828,-0.7792,-0.778,-0.7758,-0.7734,-0.7717,-0.7685,-0.7657,-0.7651,-0.763,-0.7631,-0.7626,-0.7608,-0.7587,-0.7611,-0.7616,-0.7618,-0.7583,-0.7582,-0.7581,-0.7581,0,0,-0.7962,-0.7907,-0.7906,-0.789,-0.785,-0.7836,-0.7823,-0.7796,-0.7787,-0.7761,-0.775,-0.7722,-0.7706,-0.7688,-0.7664,-0.7661,-0.7678,-0.7643,-0.7642,-0.7651,-0.7679,-0.7692,-0.7695,-0.7663,-0.7663,-0.7663,-0.7681,0,-0.7979,-0.7954,-0.7923,-0.7909,-0.7893,-0.7858,-0.7848,-0.7823,-0.78,-0.7784,-0.7759,-0.774,-0.7719,-0.7709,-0.7704,-0.7677,-0.7683,-0.7675,-0.7652,-0.7652,-0.7661,-0.7698,-0.7711,-0.773,-0.7683,-0.7683,-0.7684,0,-0.7994,-0.7971,-0.7956,-0.7919,-0.7911,-0.7902,-0.7876,-0.786,-0.7832,-0.7816,-0.7797,-0.7772,-0.7758,-0.7741,-0.7721,-0.7717,-0.7706,-0.7692,-0.7692,-0.7688,-0.7669,-0.7695,-0.7735,-0.7738,-0.7686,-0.7686,-0.7686,0,-0.8032,-0.7997,-0.7983,-0.797,-0.7927,-0.7921,-0.7903,-0.7874,-0.786,-0.7838,-0.7829,-0.7805,-0.7791,-0.7774,-0.7743,-0.7733,-0.7728,-0.7707,-0.7714,-0.7715,-0.7714,-0.7714,-0.7753,-0.7708,-0.7708,-0.7708,-0.7708,0,-0.8054,-0.8046,-0.8,-0.7992,-0.7982,-0.7947,-0.7939,-0.7918,-0.7893,-0.788,-0.7849,-0.7839,-0.7799,-0.7784,-0.776,-0.7748,-0.7742,-0.7729,-0.7723,-0.7732,-0.7734,-0.7724,-0.7722,-0.7708,-0.7708,-0.7708,-0.7708,0,-0.8093,-0.8062,-0.8045,-0.8006,-0.7996,-0.7991,-0.7958,-0.7949,-0.7926,-0.7911,-0.7905,-0.7868,-0.7849,-0.7817,-0.7788,-0.7772,-0.7765,-0.7755,-0.7775,-0.7771,-0.778,-0.778,-0.7813,-0.7816,-0.777,-0.777,-0.7771,0,-0.8109,-0.8102,-0.8063,-0.8053,-0.8036,-0.8019,-0.8005,-0.7972,-0.7959,-0.7927,-0.7922,-0.7901,-0.7882,-0.7853,-0.7824,-0.7802,-0.7791,-0.7804,-0.7787,-0.7797,-0.7791,-0.7792,-0.7792,-0.7808,-0.7808,-0.7809,-0.7809,0,-0.8141,-0.8126,-0.8108,-0.8084,-0.8069,-0.8049,-0.8027,-0.8021,-0.7982,-0.797,-0.795,-0.7935,-0.7907,-0.7886,-0.7861,-0.7842,-0.782,-0.7815,-0.7816,-0.7825,-0.7837,-0.7831,-0.7786,-0.7814,-0.7814,-0.7814,-0.7813,-0.7813,-0.8169,-0.8162,-0.8134,-0.8115,-0.8095,-0.8076,-0.8066,-0.8042,-0.8025,-0.7999,-0.7981,-0.7963,-0.7936,-0.79,-0.7883,-0.7869,-0.7859,-0.7859,-0.7859,-0.786,-0.7864,-0.784,-0.7864,-0.7864,-0.7864,-0.7864,-0.7863,0,-0.82,-0.818,-0.8163,-0.8134,-0.812,-0.81,-0.8076,-0.8065,-0.805,-0.8027,-0.8009,-0.7987,-0.7968,-0.7938,-0.7916,-0.7911,-0.79,-0.7906,-0.7906,-0.7903,-0.7874,-0.7876,-0.7915,-0.7915,-0.7915,-0.7915,-0.7915,-0.7915,-0.8214,-0.8202,-0.8184,-0.8162,-0.8143,-0.8125,-0.8113,-0.8095,-0.8077,-0.8054,-0.8038,-0.8019,-0.7994,-0.797,-0.7952,-0.7944,-0.7937,-0.7947,-0.7936,-0.7909,-0.7904,-0.79,-0.7901,-0.7946,-0.7946,-0.7965,-0.7966,-0.7966]},{"header":{"parameterUnit":"m.s-1","parameterCategory":1,"la1":30.2991,"la2":30.254,"lo1":-89.0895,"lo2":-89.0444,"dy":0.0017,"dx":0.0017,"nx":28,"ny":28,"refTime":"2025-06-21T09:00:00:Z","depth":0,"parameterNumber":3,"parameterNumberName":"V-component_of_WINDS"},"data":[0,0,0,0,0,0,0,0,0,0,0,0,0,0,0,0,0,0,0,0,0,0,0,0,0,0,0,0,0,0,0,0,0,0,0,0,0,0,0,0,0,0,0,0,0,0,0,0,0,0,0,0,0,0,0,0,0,0,3.5475,3.5475,0,3.5438,3.5437,3.5437,3.5468,3.5469,3.5471,3.5472,3.5427,3.5425,3.5422,0,0,0,0,0,0,0,0,0,0,0,0,0,3.5569,3.5567,3.5475,3.5475,3.5474,3.5438,3.5437,3.5437,3.5468,3.547,3.5471,3.5473,3.5428,3.5425,3.5422,0,0,0,0,0,0,0,0,0,0,0,0,0,3.5529,3.5566,3.5475,3.5486,3.5486,3.5438,3.5437,3.5436,3.5468,3.547,3.5472,3.5473,3.5429,3.5425,3.5422,3.5359,0,0,3.5411,3.5409,0,0,0,0,0,0,0,0,3.5531,3.5526,3.5485,3.5485,3.5485,3.546,3.5454,3.541,3.5467,3.5474,3.5472,3.5474,3.5436,3.5432,3.542,3.5357,3.5355,3.541,3.5408,3.5406,3.5405,0,0,0,0,0,0,0,3.5534,3.5528,3.546,3.5484,3.5484,3.549,3.5487,3.5446,3.5444,3.5474,3.5476,3.5472,3.5436,3.5424,3.5419,3.5354,3.541,3.5407,3.5405,3.5403,3.5238,3.5236,0,0,0,0,0,0,3.5537,3.553,3.5461,3.5459,3.5514,3.5487,3.5483,3.5466,3.5445,3.5444,3.547,3.5473,3.5429,3.5424,3.5418,3.5343,3.5406,3.5403,3.5401,3.5241,3.5238,3.5236,0,0,0,0,0,0,3.5539,3.553,3.5463,3.5495,3.5487,3.5483,3.5463,3.5464,3.5451,3.5442,3.5441,3.5457,3.543,3.5423,3.5374,3.5342,3.5401,3.5398,3.5243,3.524,3.5237,3.5194,0,0,0,0,0,0,3.5541,3.5531,3.5508,3.5494,3.5485,3.5421,3.5462,3.5462,3.5446,3.545,3.543,3.5428,3.5431,3.5379,3.537,3.5338,3.5395,3.5246,3.5242,3.5238,3.5198,3.5189,3.5182,0,0,0,0,0,3.5544,3.5496,3.5507,3.5498,3.5457,3.5419,3.5414,3.542,3.5443,3.5419,3.5414,3.5429,3.5348,3.5374,3.5364,3.533,3.5248,3.5243,3.5238,3.5201,3.5191,3.5182,0,0,0,0,0,0,3.5503,3.5494,3.5506,3.5452,3.5437,3.5425,3.5395,3.5408,3.5384,3.5388,3.5395,3.539,3.5339,3.533,3.536,3.5269,3.5301,3.5294,3.5277,3.5267,3.5259,3.5261,3.5392,0,0,0,0,0,3.5489,3.5461,3.5453,3.5406,3.5398,3.5398,3.5382,3.5388,3.5371,3.5364,3.5354,3.5336,3.5306,3.5286,3.5258,3.5197,3.5193,3.5169,3.5161,3.5155,3.5148,3.5115,3.5104,3.5219,3.5219,3.5219,0,0,3.5456,3.5448,3.5429,3.5398,3.5386,3.5356,3.5392,3.5358,3.5334,3.5358,3.5312,3.5304,3.5284,3.5229,3.5204,3.522,3.5116,3.5149,3.5143,3.514,3.5109,3.5098,3.5088,3.5216,3.5217,3.5217,0,0,3.5382,3.5374,3.5334,3.5323,3.5306,3.5306,3.5297,3.5283,3.528,3.5234,3.5252,3.5223,3.5172,3.5157,3.5142,3.5065,3.5078,3.5055,3.5013,3.4981,3.4972,3.4964,3.4935,3.4925,3.5049,3.5049,3.5049,0,3.5344,3.53,3.5311,3.5276,3.5261,3.5284,3.5243,3.5231,3.5205,3.5193,3.5212,3.5149,3.5137,3.5079,3.506,3.5048,3.5036,3.5057,3.4973,3.4965,3.4957,3.493,3.492,3.5046,3.5046,3.5047,3.5047,0,3.5254,3.5223,3.5193,3.517,3.5152,3.5114,3.5117,3.5098,3.5106,3.5104,3.5057,3.5044,3.5014,3.5001,3.5007,3.4943,3.4954,3.4972,3.5004,3.4944,3.4918,3.4908,3.5042,3.5043,3.5044,3.5045,0,0,3.5151,3.5137,3.5125,3.5115,3.5099,3.5075,3.5038,3.5011,3.4994,3.4975,3.4943,3.49,3.4918,3.4902,3.4907,3.4879,3.4818,3.4901,3.4901,3.4886,3.4746,3.4732,3.4719,3.4828,3.4826,3.4824,3.4748,0,3.5076,3.5014,3.5023,3.4962,3.4934,3.4956,3.4924,3.4909,3.4907,3.4881,3.4878,3.4847,3.4873,3.4863,3.4837,3.4831,3.479,3.4837,3.4796,3.4795,3.48,3.4706,3.469,3.4619,3.4738,3.4736,3.4735,0,3.498,3.4961,3.4898,3.4888,3.4876,3.4847,3.4824,3.4799,3.4783,3.4783,3.4766,3.4777,3.4738,3.4773,3.4719,3.4751,3.4735,3.4729,3.4727,3.4722,3.476,3.4698,3.4596,3.4585,3.472,3.4721,3.4722,0,3.4911,3.4869,3.4827,3.4818,3.4804,3.4783,3.4776,3.4763,3.4747,3.4725,3.4715,3.4688,3.4674,3.4652,3.4655,3.468,3.46,3.4635,3.4598,3.4598,3.4579,3.458,3.4472,3.457,3.457,3.4571,3.4571,0,3.4826,3.4786,3.4796,3.4769,3.4725,3.4736,3.4691,3.4687,3.4675,3.4647,3.4664,3.4637,3.4643,3.4615,3.4617,3.4572,3.4565,3.4563,3.4564,3.4561,3.4561,3.455,3.4554,3.4568,3.4568,3.4569,3.4569,0,3.474,3.4745,3.47,3.4692,3.4689,3.4657,3.465,3.4624,3.4624,3.4588,3.458,3.4579,3.4548,3.4549,3.4513,3.4514,3.4459,3.4466,3.4465,3.4466,3.4429,3.4432,3.4309,3.4293,3.4402,3.4401,3.44,0,3.4685,3.4656,3.4645,3.4629,3.4622,3.4595,3.4579,3.4588,3.457,3.4551,3.4527,3.4498,3.4476,3.4424,3.4419,3.4391,3.4397,3.4356,3.4393,3.4391,3.4396,3.4397,3.4394,3.4348,3.4347,3.4346,3.4345,0,3.4586,3.4591,3.4568,3.4547,3.4528,3.4511,3.4495,3.448,3.4488,3.4467,3.4437,3.4419,3.4384,3.4354,3.4328,3.4319,3.4333,3.4334,3.4324,3.432,3.4321,3.4319,3.4444,3.4336,3.4337,3.4338,3.4338,3.4339,3.4514,3.4489,3.4478,3.4453,3.4443,3.4428,3.4404,3.4402,3.4378,3.4351,3.4358,3.4323,3.4309,3.4276,3.4264,3.4237,3.4251,3.4236,3.4232,3.4228,3.4224,3.4326,3.4232,3.4232,3.4232,3.4233,3.4233,0,3.4415,3.441,3.4387,3.4366,3.4346,3.4364,3.4348,3.4329,3.4299,3.4285,3.4263,3.4228,3.42,3.4194,3.4166,3.4145,3.4151,3.4137,3.4138,3.4136,3.4213,3.4224,3.4134,3.4134,3.4134,3.4134,3.4134,3.4134,3.4362,3.4321,3.4324,3.4278,3.4273,3.4241,3.423,3.4216,3.4206,3.4167,3.4144,3.4141,3.413,3.4102,3.4077,3.4076,3.4064,3.4048,3.4049,3.4121,3.4131,3.414,3.4151,3.4046,3.4046,3.3975,3.3974,3.3973]}]]